Wetbulb
59.02 58.92 59.41 59.72 59.78 59.54 59.34 58.10 56.84 56.79 57.07 57.18 57.22 57.28 57.29 57.08 55.37 54.65 51.66 56.47 59.31 61.62 61.45 58.26 57.02 55.86 54.50 52.21 52.04 48.19 40.61 37.89 39.38 41.84 46.08 50.52 48.89 50.81 50.55 49.12 50.99 61.18 63.27 65.30 66.75
59.36 59.58 60.13 60.14 59.74 59.21 57.83 56.93 56.00 56.09 56.36 56.48 56.38 56.62 56.73 56.46 52.33 51.65 57.39 61.93 61.47 61.83 57.37 55.56 54.13 54.84 50.55 49.20 49.26 45.92 40.33 42.91 46.42 47.66 46.98 49.72 49.38 48.58 48.04 48.51 49.18 60.24 65.08 66.50 66.59
59.78 59.95 60.40 60.43 59.68 58.09 56.99 55.94 55.45 55.78 55.67 55.65 55.89 56.35 56.20 55.30 50.91 52.60 62.00 62.40 62.18 60.88 57.75 56.11 55.44 53.27 48.87 48.77 48.53 45.74 42.96 46.54 48.67 49.04 49.32 47.92 47.88 47.84 45.65 45.93 49.17 49.03 62.31 64.34 64.88
59.25 59.46 59.93 60.26 58.22 56.75 56.04 55.00 54.91 55.21 55.11 55.31 55.90 56.32 56.26 52.98 41.61 54.02 62.89 62.70 62.79 58.37 56.25 54.19 52.36 48.82 47.03 45.93 49.20 45.16 49.64 48.82 49.36 49.75 49.07 47.10 47.72 48.56 46.33 48.15 51.14 50.65 63.81 63.96 63.53
58.31 58.83 59.46 59.19 56.95 55.89 55.01 54.17 53.94 54.07 54.56 55.01 55.79 56.66 51.95 48.58 50.52 58.10 63.11 62.57 59.68 58.32 55.16 53.04 50.42 49.15 45.93 47.40 47.97 46.56 48.01 49.98 50.97 51.19 48.68 49.94 47.99 48.54 49.06 50.62 51.98 51.77 64.00 63.65 63.66
57.92 58.22 58.66 56.53 55.79 55.16 54.12 53.04 52.99 53.10 53.78 54.41 55.44 56.65 48.82 42.66 56.38 57.83 57.90 56.51 57.50 56.16 53.73 53.88 51.98 51.81 48.56 47.59 45.43 48.34 48.34 47.70 48.23 48.12 48.87 48.81 48.76 46.51 50.89 52.44 51.35 51.45 56.89 62.72 63.55
57.88 57.75 56.00 55.42 54.82 53.69 52.86 52.81 52.48 52.67 53.32 53.65 54.46 54.46 47.30 45.30 53.72 54.94 55.12 55.09 55.45 54.90 52.03 53.55 53.47 49.98 49.29 47.19 50.37 48.93 44.96 47.08 48.44 46.57 47.32 47.88 46.73 46.49 50.78 51.20 51.14 52.57 52.47 61.60 63.36
57.69 55.83 54.74 54.40 53.25 52.16 52.12 51.81 51.91 52.87 53.34 53.85 56.59 51.62 43.43 54.32 53.72 54.00 54.67 54.84 56.61 55.35 53.90 54.39 53.67 51.07 49.16 50.46 48.89 45.77 44.00 39.75 45.81 47.27 48.66 47.07 42.43 49.62 52.47 50.68 50.54 51.34 51.54 51.84 61.78
55.95 55.02 53.75 52.46 51.53 50.95 50.88 51.20 51.95 52.92 53.50 54.01 51.28 47.35 44.33 57.15 54.29 56.10 56.09 54.28 55.31 57.76 56.64 56.16 52.73 48.56 48.24 43.29 40.55 41.40 37.59 39.74 43.49 48.95 47.06 45.71 43.08 49.11 51.23 50.52 49.64 50.84 51.71 50.58 51.77
55.06 54.24 52.97 51.62 50.48 49.97 50.05 50.99 50.60 50.57 50.80 54.86 54.21 46.54 50.38 50.64 54.73 55.14 54.87 56.18 54.60 54.17 53.47 52.12 48.55 44.73 43.66 40.97 35.03 38.09 38.65 41.56 41.19 45.67 48.36 46.54 46.64 48.66 49.07 48.59 47.77 47.35 46.70 47.87 48.86
54.43 53.53 52.45 50.86 50.05 49.66 46.54 46.18 47.98 47.04 48.54 47.73 48.54 47.99 50.97 54.88 56.78 53.44 55.20 53.53 52.05 49.09 43.47 47.77 43.06 41.45 43.83 44.99 45.96 45.02 43.08 41.93 45.17 48.61 46.89 45.93 46.27 48.46 48.18 48.04 48.29 48.79 49.18 48.82 48.35
53.44 52.70 51.62 50.67 49.99 50.25 45.36 45.27 48.40 48.29 42.15 49.35 50.22 50.84 53.21 53.98 49.59 52.80 54.48 47.82 46.93 41.65 44.50 41.93 38.33 44.90 47.59 47.68 46.21 45.28 43.37 42.61 45.60 47.70 46.95 46.21 45.67 47.58 47.44 47.72 48.33 45.73 44.84 45.69 47.26
52.78 51.83 51.03 49.99 49.11 46.77 42.97 49.60 52.70 50.48 39.09 44.21 47.81 47.92 49.26 52.08 48.62 49.84 51.40 48.01 44.34 41.69 41.70 38.03 42.22 46.56 44.45 43.14 42.69 42.82 41.22 41.45 41.61 44.49 45.32 43.43 42.67 43.26 47.02 48.59 45.98 45.41 45.11 45.46 45.41
51.62 51.15 50.05 48.44 44.41 44.74 42.65 51.28 52.87 49.74 33.95 40.18 44.69 47.73 50.03 50.46 45.44 51.80 52.21 48.06 44.19 41.04 41.79 39.87 44.59 43.04 41.98 40.70 41.95 37.34 43.81 43.41 42.33 40.23 35.73 43.00 34.61 42.55 44.25 42.36 43.06 43.67 43.18 43.24 44.21
50.60 50.04 48.39 49.41 46.34 45.63 49.85 50.95 51.54 49.07 24.10 43.96 44.81 51.46 49.74 45.70 45.32 46.44 49.90 47.02 41.57 41.80 41.31 38.76 40.72 40.36 39.52 40.88 43.17 39.86 44.22 43.85 42.60 38.59 36.60 38.62 34.91 40.47 43.12 38.63 39.87 40.37 39.95 40.21 41.36
49.02 48.18 48.03 45.65 45.17 50.26 51.59 52.71 50.69 37.38 27.43 41.09 45.47 44.08 43.82 45.71 46.05 46.53 47.21 48.58 47.00 42.27 41.33 40.52 44.41 42.62 41.42 43.74 43.59 44.55 40.47 41.40 39.75 37.66 31.27 36.89 36.62 37.46 35.76 37.99 38.70 39.56 39.73 40.52 41.04
47.44 46.85 46.66 50.04 46.00 50.20 50.80 47.65 34.20 29.99 43.09 39.15 40.10 43.35 42.84 41.82 43.07 43.89 42.93 40.34 38.34 35.19 34.78 39.98 40.48 42.75 45.02 39.98 42.36 40.50 35.66 26.68 27.28 28.47 29.07 38.04 35.57 37.37 39.06 40.07 39.33 38.65 38.93 40.13 41.14
46.95 46.58 46.86 50.67 49.72 50.49 48.29 39.32 28.51 35.57 38.71 43.40 40.91 41.72 38.25 40.38 40.52 40.99 40.12 36.78 40.96 39.09 34.58 32.66 31.25 40.74 43.86 40.16 37.25 36.23 37.58 29.29 24.85 25.12 28.65 36.80 31.18 37.45 41.66 42.00 41.69 41.40 41.52 42.31 42.22
46.60 45.20 46.61 48.00 50.23 49.06 41.91 30.78 29.80 36.50 39.78 38.35 39.54 36.55 37.04 39.44 37.53 37.55 37.51 35.35 38.36 38.96 34.71 31.84 32.62 40.82 41.23 43.11 39.97 36.60 31.73 38.88 32.48 32.70 30.38 31.52 35.13 39.09 41.64 39.61 39.26 39.52 40.19 40.06 41.25
45.04 44.84 44.79 48.78 49.02 45.47 36.84 32.72 36.91 40.15 39.83 38.87 34.31 37.31 32.83 34.44 34.25 34.18 35.75 40.80 40.01 42.17 40.67 36.60 29.09 38.03 39.43 41.85 40.00 38.74 39.51 30.71 32.48 23.22 21.51 27.36 30.18 31.17 37.09 37.52 38.82 39.08 40.33 40.97 42.60
43.49 36.04 45.61 48.79 46.51 39.69 30.78 33.03 36.94 40.78 39.59 36.45 34.11 33.83 34.35 32.84 33.90 32.65 34.32 37.54 39.63 40.34 40.36 37.11 32.80 32.26 36.37 35.27 34.82 35.29 33.10 33.44 32.51 29.29 22.96 22.05 25.59 36.12 37.41 38.72 37.85 39.94 42.06 42.26 41.76
41.59 32.10 45.67 46.67 32.57 34.15 31.44 36.28 38.61 36.80 39.98 37.72 37.41 36.96 34.68 34.49 32.33 32.42 32.69 35.35 40.36 41.00 35.60 39.26 34.51 28.25 31.08 36.49 37.87 34.75 32.00 32.44 22.36 20.03 27.76 26.26 25.54 38.25 36.28 37.37 40.11 42.02 42.72 42.23 40.69
35.82 36.03 44.67 44.36 27.62 30.28 34.82 34.99 36.05 35.28 36.30 36.42 34.96 35.23 35.11 32.40 28.82 33.08 34.13 38.90 40.12 38.32 35.76 35.96 29.56 22.44 26.47 29.69 33.70 30.57 32.18 34.08 30.95 26.68 23.71 22.52 25.41 38.77 38.04 38.48 40.65 40.82 42.41 43.41 41.86
36.36 29.25 35.45 39.41 37.31 33.92 32.22 32.54 33.15 38.39 36.27 36.12 34.80 34.91 32.27 29.77 32.18 29.34 30.99 36.24 39.04 38.42 41.11 39.16 31.28 26.41 21.46 25.54 29.56 27.67 30.16 31.16 30.72 24.11 23.37 24.71 26.65 31.56 35.74 36.95 39.26 40.41 41.29 41.02 38.95
36.00 31.58 35.17 29.84 31.75 33.44 34.35 34.63 32.28 32.33 36.59 36.07 33.12 33.50 31.62 27.57 29.10 29.05 32.40 33.34 36.13 38.72 36.19 34.00 25.00 28.58 30.24 31.36 31.16 29.74 29.10 29.43 27.14 28.12 22.63 26.48 27.91 32.35 34.78 33.58 34.96 36.24 36.99 37.94 38.42
33.47 32.94 34.78 32.92 35.09 33.62 32.54 30.17 31.05 32.34 34.05 32.18 31.29 33.28 32.55 28.58 29.89 26.60 31.00 29.35 29.20 31.98 31.94 34.06 22.88 26.31 24.87 29.62 29.56 27.67 29.21 28.25 28.25 28.72 28.64 29.28 28.44 32.59 34.37 35.15 34.83 34.65 36.43 38.06 37.67
36.68 37.64 35.08 33.45 31.45 29.33 29.03 31.82 32.05 34.62 34.92 35.67 33.90 30.98 29.62 31.74 33.32 32.68 32.41 32.18 31.21 28.13 26.85 29.11 26.52 25.05 20.65 27.25 26.57 21.34 25.85 27.60 28.92 30.85 29.59 24.39 28.68 32.57 31.62 32.99 33.26 33.19 36.69 36.99 35.78
MSLP
1016.71 1016.89 1016.96 1016.94 1017.00 1016.86 1016.90 1016.72 1016.46 1016.45 1016.25 1016.00 1015.70 1015.29 1014.77 1014.39 1013.25 1012.35 1011.62 1009.79 1009.70 1009.42 1009.54 1009.46 1009.43 1009.41 1009.66 1009.92 1009.77 1010.53 1011.59 1011.56 1010.67 1010.00 1007.91 1006.43 1006.26 1005.39 1004.63 1004.61 1004.51 1004.89 1004.80 1004.65 1006.08
1016.44 1016.62 1016.65 1016.67 1016.78 1016.76 1016.70 1016.62 1016.48 1016.33 1016.10 1015.83 1015.59 1015.28 1014.66 1014.30 1013.62 1011.72 1009.33 1009.12 1009.32 1009.34 1009.47 1009.65 1009.53 1009.43 1009.92 1009.99 1009.76 1010.12 1010.68 1009.85 1009.25 1008.55 1007.72 1006.48 1006.14 1005.43 1004.95 1004.86 1004.48 1004.73 1005.02 1005.58 1006.44
1016.30 1016.40 1016.38 1016.56 1016.62 1016.52 1016.52 1016.41 1016.29 1016.22 1015.99 1015.61 1015.53 1015.23 1014.63 1014.06 1013.33 1010.34 1009.02 1009.18 1009.25 1009.28 1009.31 1009.46 1009.50 1009.53 1009.78 1009.85 1009.80 1009.66 1009.62 1009.24 1008.19 1007.88 1007.42 1006.80 1006.08 1005.41 1005.00 1004.87 1004.76 1005.05 1005.77 1006.53 1007.27
1016.05 1016.03 1016.26 1016.33 1016.45 1016.36 1016.23 1016.18 1016.14 1016.26 1015.95 1015.59 1015.65 1015.24 1014.36 1013.80 1012.63 1009.70 1009.32 1009.40 1009.39 1009.41 1009.39 1009.32 1009.48 1009.82 1009.93 1010.06 1009.46 1009.39 1008.94 1008.78 1007.92 1007.34 1007.26 1006.98 1006.20 1005.48 1005.13 1004.81 1004.45 1004.66 1004.98 1006.09 1006.97
1015.74 1015.79 1016.06 1016.23 1016.37 1016.33 1016.09 1016.12 1015.96 1016.01 1015.77 1015.87 1015.70 1015.11 1014.16 1013.83 1011.66 1009.62 1009.50 1009.65 1009.66 1009.56 1009.34 1009.48 1009.65 1009.75 1009.98 1009.71 1009.56 1009.26 1008.83 1008.15 1007.54 1007.14 1006.92 1006.51 1006.08 1005.64 1004.59 1004.09 1003.78 1004.04 1004.97 1005.42 1005.83
1015.42 1015.60 1015.93 1016.06 1016.05 1016.14 1015.96 1015.86 1015.82 1015.82 1015.63 1015.68 1015.55 1015.34 1014.87 1013.40 1010.03 1009.71 1009.61 1009.64 1009.64 1009.69 1009.51 1009.38 1009.47 1009.61 1009.66 1009.60 1009.79 1009.13 1008.86 1008.20 1007.50 1007.21 1006.72 1006.52 1005.44 1004.98 1003.73 1003.50 1003.53 1003.55 1004.11 1004.50 1004.94
1015.13 1015.45 1015.79 1015.95 1015.80 1015.67 1015.75 1015.67 1015.70 1015.35 1015.14 1015.65 1015.39 1015.36 1014.54 1012.28 1009.56 1009.35 1009.87 1009.73 1009.36 1009.24 1009.20 1009.07 1009.24 1009.68 1009.73 1009.79 1009.42 1009.43 1009.13 1008.43 1007.45 1007.22 1006.81 1006.50 1004.93 1004.60 1003.70 1003.43 1003.30 1003.03 1002.96 1003.61 1003.83
1014.80 1015.20 1015.55 1015.68 1015.62 1015.74 1015.62 1015.47 1015.16 1015.09 1015.22 1015.22 1015.12 1015.07 1013.48 1010.26 1009.62 1009.35 1009.14 1009.00 1008.70 1008.62 1008.63 1008.46 1008.70 1009.33 1009.80 1009.78 1009.70 1009.93 1009.81 1009.05 1007.55 1007.37 1006.64 1006.58 1003.99 1004.14 1003.49 1003.81 1003.35 1002.90 1002.63 1002.51 1002.76
1014.49 1014.96 1015.30 1015.53 1015.45 1015.72 1015.52 1015.11 1014.82 1014.73 1015.02 1015.00 1015.07 1014.68 1012.18 1009.60 1009.41 1008.16 1008.18 1008.59 1008.20 1008.24 1008.08 1007.96 1008.68 1009.35 1009.83 1010.45 1010.82 1010.32 1009.99 1009.21 1008.20 1006.91 1006.57 1006.03 1004.43 1003.75 1003.12 1003.07 1003.04 1002.80 1002.34 1001.91 1001.97
1014.20 1014.64 1014.90 1015.28 1015.33 1015.42 1015.20 1014.76 1014.31 1014.61 1014.63 1014.71 1014.44 1014.44 1011.21 1009.39 1008.44 1007.92 1007.61 1007.78 1008.22 1008.52 1008.44 1008.42 1008.99 1009.74 1010.25 1010.84 1010.91 1010.49 1009.89 1008.90 1008.43 1007.00 1006.24 1005.36 1003.75 1003.81 1003.44 1003.32 1003.20 1002.98 1002.55 1002.39 1001.83
1013.71 1014.31 1014.66 1014.87 1015.16 1015.20 1015.15 1014.42 1014.55 1014.78 1014.36 1013.12 1012.51 1011.49 1009.94 1008.99 1008.15 1008.02 1008.01 1008.04 1008.30 1008.92 1009.64 1009.45 1009.91 1009.76 1009.67 1010.23 1010.20 1010.34 1009.79 1008.78 1008.32 1007.55 1006.62 1005.51 1003.05 1003.68 1003.61 1003.32 1003.77 1003.38 1003.00 1002.55 1002.43
1013.08 1013.77 1014.32 1014.57 1014.87 1015.10 1015.35 1014.66 1013.61 1013.72 1013.25 1011.98 1011.43 1010.78 1009.54 1009.60 1009.16 1008.13 1008.24 1008.71 1008.72 1009.42 1009.81 1010.42 1010.30 1009.76 1009.72 1009.79 1009.92 1009.89 1009.33 1008.27 1007.43 1007.00 1006.58 1005.71 1002.79 1003.91 1003.68 1003.89 1004.69 1005.38 1005.46 1005.44 1004.47
1012.59 1013.37 1013.97 1014.57 1014.76 1015.04 1014.79 1013.81 1012.95 1013.20 1013.38 1010.94 1009.70 1009.18 1008.73 1008.82 1008.43 1007.63 1008.35 1008.46 1009.03 1009.59 1010.06 1010.61 1010.13 1009.52 1009.41 1009.25 1009.08 1009.33 1009.16 1008.38 1007.49 1007.27 1006.62 1006.11 1003.79 1004.05 1003.91 1004.70 1005.84 1006.35 1006.59 1006.04 1005.67
1012.29 1013.21 1013.82 1014.39 1014.98 1014.10 1013.88 1013.06 1012.90 1013.17 1013.14 1010.16 1008.52 1007.44 1007.79 1008.01 1007.81 1007.10 1007.06 1008.04 1008.87 1009.13 1009.72 1009.82 1009.13 1009.16 1009.19 1009.00 1008.79 1008.47 1008.49 1007.78 1007.62 1007.71 1007.24 1006.90 1005.88 1004.16 1004.72 1006.16 1007.02 1007.74 1007.47 1007.25 1006.72
1011.95 1013.09 1013.66 1013.99 1013.59 1013.26 1012.61 1012.60 1012.86 1013.26 1012.05 1008.16 1007.26 1006.59 1006.83 1007.54 1007.34 1006.68 1006.60 1007.42 1008.15 1008.84 1009.12 1009.12 1008.96 1008.66 1008.49 1008.28 1008.07 1007.60 1007.88 1007.92 1008.05 1008.21 1007.95 1007.12 1007.94 1003.96 1005.55 1007.07 1007.83 1008.87 1009.56 1009.05 1008.14
1012.01 1012.59 1013.50 1013.93 1013.92 1012.63 1012.25 1012.37 1012.97 1013.16 1010.04 1007.62 1006.86 1006.77 1007.21 1007.28 1007.24 1006.71 1006.73 1006.93 1007.66 1008.59 1008.78 1009.08 1008.79 1008.66 1007.90 1007.83 1008.10 1007.89 1008.13 1008.18 1008.46 1008.99 1008.92 1007.28 1008.21 1006.25 1007.48 1008.30 1009.01 1009.66 1010.11 1009.86 1009.03
1011.51 1012.29 1013.04 1013.01 1013.39 1012.79 1012.27 1013.05 1013.74 1011.89 1008.16 1007.24 1006.97 1006.92 1007.16 1007.39 1007.34 1007.13 1007.25 1007.70 1008.24 1008.97 1009.16 1009.23 1008.78 1008.16 1008.10 1008.36 1008.43 1008.57 1009.09 1009.89 1010.15 1010.15 1008.62 1008.36 1008.66 1007.46 1008.84 1009.55 1009.96 1010.12 1010.08 1009.90 1009.24
1011.21 1012.21 1012.95 1012.62 1012.87 1012.95 1013.68 1014.21 1013.14 1010.04 1008.20 1007.02 1007.12 1007.25 1007.42 1007.40 1007.41 1007.51 1007.76 1008.38 1008.83 1009.19 1009.71 1009.76 1009.26 1008.46 1008.68 1009.16 1009.54 1009.90 1010.32 1011.24 1011.09 1010.65 1010.11 1009.54 1009.08 1008.43 1009.16 1009.80 1010.23 1010.56 1010.45 1009.17 1008.45
1011.03 1012.25 1012.97 1012.89 1012.84 1013.30 1014.40 1013.88 1011.32 1009.84 1008.74 1008.00 1007.73 1007.76 1007.86 1008.05 1008.33 1008.20 1008.43 1008.95 1009.26 1009.59 1010.20 1010.45 1009.95 1009.12 1008.94 1009.27 1009.86 1010.58 1011.11 1011.72 1012.13 1011.82 1011.88 1010.43 1009.77 1009.78 1009.85 1010.18 1010.16 1010.13 1010.18 1009.63 1009.06
1010.30 1011.77 1012.67 1012.73 1012.76 1013.68 1014.24 1012.68 1011.04 1009.76 1009.12 1008.63 1008.37 1008.45 1008.74 1009.23 1009.39 1009.54 1009.44 1009.79 1009.83 1009.81 1009.90 1010.75 1010.78 1010.22 1009.87 1010.08 1010.46 1010.61 1011.42 1012.52 1013.09 1012.98 1011.73 1010.53 1010.18 1009.60 1010.16 1010.47 1010.37 1010.49 1010.32 1009.48 1008.70
1010.41 1012.20 1012.39 1012.68 1013.27 1013.44 1013.24 1012.33 1011.20 1010.15 1009.57 1009.34 1009.42 1009.63 1010.00 1010.21 1010.40 1010.70 1010.86 1010.88 1010.61 1010.88 1011.00 1011.64 1012.02 1011.33 1011.03 1010.80 1011.06 1011.71 1012.01 1012.90 1013.74 1013.88 1013.10 1011.82 1010.54 1009.93 1010.14 1010.08 1010.48 1010.47 1009.76 1008.88 1008.31
1010.40 1011.92 1012.44 1012.59 1013.54 1013.24 1012.59 1011.83 1011.36 1010.97 1010.19 1009.98 1010.14 1010.35 1010.82 1011.10 1011.28 1011.42 1011.54 1011.58 1011.35 1011.28 1011.74 1012.27 1013.46 1013.17 1012.38 1011.73 1011.57 1011.97 1012.45 1013.10 1014.12 1014.35 1013.69 1012.72 1011.25 1010.78 1010.98 1011.01 1010.64 1009.95 1009.01 1008.43 1007.96
1010.76 1011.93 1012.86 1013.16 1013.59 1013.32 1012.50 1012.15 1011.88 1011.05 1010.72 1010.76 1011.12 1011.51 1011.98 1012.02 1012.23 1011.94 1012.07 1012.36 1012.18 1012.30 1012.56 1012.89 1013.89 1014.28 1013.20 1012.43 1011.89 1012.15 1012.65 1013.25 1013.92 1014.35 1013.89 1013.29 1011.54 1010.80 1011.26 1011.52 1010.48 1009.38 1009.06 1007.99 1007.55
1010.52 1012.24 1013.48 1013.39 1013.16 1012.90 1012.46 1012.14 1011.92 1011.05 1011.00 1011.28 1011.72 1012.00 1012.63 1012.99 1013.08 1013.24 1013.35 1013.56 1013.30 1013.35 1013.51 1013.56 1014.36 1014.80 1014.53 1013.70 1013.57 1013.17 1012.99 1013.33 1013.75 1013.78 1013.32 1012.46 1011.55 1010.83 1010.64 1010.11 1009.51 1008.83 1008.08 1007.31 1007.13
1010.30 1011.13 1011.24 1012.94 1013.17 1012.66 1012.06 1011.67 1011.45 1011.34 1011.41 1011.63 1012.17 1012.68 1013.15 1013.64 1013.74 1014.01 1014.44 1014.63 1014.34 1014.36 1014.63 1015.04 1015.44 1015.56 1015.21 1014.73 1014.22 1013.88 1013.36 1012.78 1013.14 1012.77 1012.52 1011.60 1011.00 1010.23 1009.48 1009.80 1009.19 1008.65 1007.77 1007.40 1007.31
1009.67 1009.89 1010.52 1011.57 1012.19 1012.42 1011.69 1011.53 1011.49 1011.78 1012.11 1012.22 1012.65 1013.22 1013.64 1014.08 1014.49 1014.89 1015.07 1015.22 1015.43 1015.76 1015.94 1016.30 1016.42 1016.36 1015.88 1015.25 1014.70 1014.33 1013.35 1013.04 1012.56 1011.98 1011.44 1010.89 1010.52 1010.63 1010.18 1009.72 1009.22 1008.49 1007.79 1007.61 1007.52
1008.89 1009.12 1009.64 1011.28 1011.71 1012.00 1011.69 1011.51 1011.84 1012.09 1012.59 1012.29 1012.84 1013.53 1014.20 1014.53 1014.67 1015.27 1015.67 1015.80 1016.14 1016.39 1016.54 1016.80 1016.84 1017.01 1016.26 1015.72 1015.30 1014.40 1012.71 1012.37 1011.62 1010.95 1010.90 1010.68 1010.52 1010.24 1009.91 1009.62 1009.13 1008.48 1008.30 1007.93 1007.52
Wind_Speed
8 7 7 5 4 3 6 7 8 9 10 12 13 14 16 17 21 4 7 12 6 4 1 5 4 3 1 6 5 5 2 6 7 6 15 15 3 5 4 1 4 6 6 8 15
9 9 7 6 4 3 5 7 8 8 10 11 13 14 14 15 5 8 12 3 6 4 1 3 6 6 3 4 2 6 5 11 8 10 12 12 5 5 3 7 6 2 6 15 17
10 9 8 7 2 1 4 5 7 9 10 10 13 15 16 11 6 6 4 6 5 2 2 2 3 1 2 2 4 4 6 6 10 10 12 10 8 2 1 6 8 5 6 13 8
11 10 9 7 4 4 4 6 7 10 11 11 12 15 19 1 6 4 4 4 4 2 3 2 2 4 2 5 6 6 11 6 9 4 4 6 5 9 6 8 8 4 14 16 13
11 10 9 10 6 5 5 7 8 9 10 11 12 13 7 3 11 2 7 3 7 3 4 3 4 3 4 5 7 7 7 8 9 12 7 7 9 8 14 10 9 6 13 20 19
11 10 9 8 7 7 7 8 9 9 10 10 11 12 2 3 6 4 4 7 7 3 7 4 4 4 5 4 3 4 8 10 8 10 9 7 11 2 13 10 9 9 11 16 20
11 10 10 10 8 7 8 8 11 10 8 10 9 3 2 16 5 8 7 5 4 6 4 5 4 1 4 8 2 6 10 12 14 5 9 4 19 12 15 10 12 17 15 15 21
12 12 11 10 8 8 8 10 11 11 9 8 3 1 9 7 7 9 6 7 9 8 6 10 4 4 4 4 8 7 4 7 2 7 10 7 22 20 19 11 18 18 16 13 21
14 13 11 10 7 8 9 11 14 11 11 4 1 2 10 9 5 10 9 6 4 5 4 6 5 6 2 2 6 1 9 9 12 8 9 9 15 14 14 12 14 15 17 16 11
15 13 12 9 7 7 10 10 8 6 4 4 4 2 6 5 4 3 4 5 0 5 6 2 3 4 0 5 7 5 6 7 7 9 12 19 21 11 11 8 10 9 8 9 10
17 14 12 9 7 5 6 5 3 2 2 9 7 5 7 2 3 2 6 6 2 4 1 5 2 8 10 9 9 9 16 20 17 14 17 20 25 13 7 7 9 10 9 10 10
19 15 13 10 7 1 1 2 2 3 7 12 16 17 19 3 7 10 3 1 3 5 2 4 6 10 7 8 12 14 18 19 14 8 13 17 31 9 5 7 8 16 16 15 18
18 16 12 9 5 2 4 4 4 4 2 10 7 8 9 13 12 10 5 4 5 6 7 6 8 11 10 9 13 13 13 16 22 8 6 8 23 2 3 6 14 13 9 13 12
18 14 12 9 3 4 4 5 6 4 2 8 6 6 6 4 5 8 11 8 5 8 9 7 13 14 14 13 12 15 13 16 12 4 10 5 14 15 0 11 12 12 14 15 18
17 11 9 10 2 4 5 6 6 4 5 4 5 7 7 8 2 2 4 5 6 6 4 7 7 6 7 6 5 8 9 7 4 4 4 6 4 15 6 6 7 14 13 15 16
17 15 9 2 3 3 3 6 3 2 9 5 6 6 4 3 2 2 3 3 5 4 4 7 6 5 7 9 7 7 4 7 3 4 6 8 8 19 3 3 4 7 10 12 14
21 16 8 3 2 4 4 3 3 5 4 7 6 7 7 5 5 6 5 3 4 1 2 3 5 4 4 4 3 9 5 4 3 2 13 4 7 8 6 6 7 5 4 6 10
20 13 4 2 3 3 5 3 6 8 4 3 4 8 6 3 2 2 5 6 1 3 2 2 6 3 2 2 0 3 5 4 6 5 4 4 7 2 5 4 6 6 7 10 11
22 4 2 1 3 4 4 5 8 4 4 2 1 3 4 3 1 6 3 3 2 3 6 2 5 2 6 3 2 2 3 1 3 5 4 6 1 3 6 3 5 6 6 5 6
8 4 3 4 3 3 6 7 3 4 3 2 3 1 3 3 3 4 3 2 2 2 3 3 6 6 2 4 3 3 2 1 2 5 11 5 6 5 7 5 1 4 6 7 8
7 5 3 2 2 3 7 6 2 2 7 3 3 2 4 3 3 2 2 2 9 3 7 3 1 4 5 3 4 1 1 2 1 2 4 9 7 4 11 11 6 7 10 11 9
4 5 2 2 3 2 5 5 1 4 2 2 2 2 2 4 2 1 4 3 7 3 3 4 2 5 4 8 7 5 8 6 5 5 3 3 5 4 1 4 9 8 13 10 9
5 4 3 3 5 3 2 6 4 3 2 3 3 4 4 3 1 2 4 1 3 3 1 3 1 3 8 4 2 3 3 4 3 3 5 4 3 4 1 7 14 15 13 15 12
4 6 1 1 2 4 6 6 5 7 4 4 3 4 3 2 2 2 3 5 6 3 3 2 3 5 8 4 4 7 11 9 6 3 11 13 16 16 14 15 18 13 11 10 10
1 3 6 8 6 4 5 6 7 4 3 4 3 4 4 3 2 2 3 3 4 8 5 2 5 3 9 11 12 11 14 16 10 10 8 13 12 15 11 4 6 6 7 6 7
5 4 3 5 11 6 4 5 5 3 3 3 6 6 6 3 3 1 2 3 2 4 2 1 3 2 4 7 8 9 12 12 15 11 13 14 14 8 6 6 8 9 5 3 5
2 2 5 4 6 5 5 5 6 7 4 6 8 5 5 5 5 3 1 3 5 3 3 4 4 3 8 7 6 10 11 14 14 7 6 5 5 4 9 11 11 8 4 4 3
Wind_Direction
222 232 234 244 264 330 351 353 354 344 339 334 331 329 326 326 314 292 254 224 195 165 114 291 283 289 157 250 200 115 57 261 225 219 263 284 269 268 252 18 322 341 163 187 137
219 224 229 237 258 343 348 345 343 333 325 327 327 321 320 332 298 273 244 184 202 144 180 284 293 348 320 281 286 145 177 239 201 239 273 279 253 285 12 345 297 9 25 134 142
218 221 223 232 235 312 318 326 321 312 316 327 325 322 321 329 318 256 156 196 218 186 170 227 302 33 284 336 253 222 217 251 271 250 257 273 295 250 165 277 268 243 140 152 156
218 217 220 222 236 245 286 302 310 311 319 328 325 326 319 52 290 320 182 229 272 316 311 317 7 346 250 275 272 276 275 236 272 259 309 283 272 303 210 244 256 218 162 166 176
219 217 217 230 227 254 276 295 302 309 320 323 327 334 356 22 253 305 241 12 317 289 214 226 247 199 241 260 320 276 278 281 282 298 280 269 264 250 266 257 270 259 167 178 190
213 212 204 202 218 247 271 287 297 302 309 317 331 324 358 234 254 304 39 333 251 266 293 196 230 259 256 269 245 293 288 286 293 309 284 294 281 257 266 264 263 255 198 195 192
206 195 191 210 225 242 264 283 286 285 296 313 323 309 227 247 228 284 319 252 247 228 253 252 171 106 341 326 344 307 317 316 290 286 280 341 282 266 275 276 265 268 262 194 204
182 181 196 214 233 252 270 278 283 289 304 293 298 247 248 253 253 263 230 273 242 247 221 252 222 239 173 263 334 314 304 297 36 330 278 146 283 282 277 271 271 265 260 236 214
173 182 197 217 228 265 284 287 284 291 281 243 278 176 263 297 246 247 177 227 308 281 274 249 125 199 262 296 342 278 268 262 297 269 268 180 270 268 284 272 263 267 263 252 208
177 186 194 205 226 266 293 277 280 350 249 187 269 328 267 257 261 245 169 180 262 349 341 57 129 158 162 140 229 240 248 239 241 296 302 290 280 275 270 288 277 284 285 281 263
177 184 186 192 222 273 341 348 14 319 251 208 194 236 283 294 332 319 35 360 82 69 277 299 101 213 220 211 235 254 269 274 276 279 282 291 289 295 298 313 318 289 285 300 305
175 176 181 188 210 223 87 216 211 181 301 236 240 245 256 343 296 290 156 94 135 212 236 330 257 247 239 247 250 250 262 272 281 276 272 280 281 306 295 286 19 35 46 24 7
168 169 176 187 166 140 200 238 131 89 267 279 211 225 236 193 233 245 172 175 196 241 247 216 251 295 273 268 257 257 271 287 281 299 294 293 281 29 342 5 51 48 41 34 23
159 166 173 162 165 180 203 186 126 108 315 267 204 240 158 199 244 236 192 160 211 220 215 236 244 240 261 263 260 273 244 265 283 16 283 85 292 292 9 84 53 31 30 19 13
150 153 158 205 321 171 186 154 123 65 299 198 144 166 152 161 285 6 151 110 197 218 126 235 313 288 260 234 243 265 239 228 201 212 300 231 205 275 37 62 67 39 19 15 19
152 146 158 159 271 279 165 104 77 87 248 205 141 171 135 201 265 275 140 126 176 211 235 237 255 259 254 291 207 294 246 224 212 158 239 254 198 277 121 143 71 47 18 11 9
146 142 151 123 197 328 57 74 88 197 294 162 185 169 197 175 214 192 180 162 194 250 266 330 225 239 40 327 19 38 47 316 294 218 253 154 211 247 127 93 82 68 15 4 17
135 131 208 167 50 45 61 85 192 211 241 30 45 153 172 158 221 250 195 209 130 116 109 220 306 181 78 110 305 319 142 176 246 247 277 294 248 252 141 110 91 60 15 17 21
134 136 147 91 79 79 152 199 205 227 320 47 80 146 174 116 352 31 198 151 91 130 167 235 259 288 6 138 98 354 244 176 198 221 255 230 339 238 183 128 63 38 10 331 308
131 132 100 156 144 138 181 221 240 24 335 38 151 94 124 76 76 55 355 42 184 180 139 216 295 246 338 95 23 178 156 138 243 239 250 230 236 225 185 186 151 310 307 318 297
102 86 130 200 162 119 196 214 279 329 27 54 82 46 76 83 87 81 42 54 17 48 65 47 146 277 355 207 183 24 327 60 225 224 238 271 262 171 194 200 178 255 257 260 279
111 101 187 63 107 195 172 179 123 260 289 38 51 23 127 132 174 156 190 0 321 184 165 130 127 280 253 306 290 216 246 183 151 270 247 258 251 8 298 195 220 280 271 268 242
100 91 60 99 156 199 198 194 210 247 159 79 91 49 30 48 198 213 97 0 351 28 21 156 130 315 305 316 19 155 197 148 108 129 216 271 269 57 232 264 252 255 293 268 273
103 118 46 239 219 172 148 171 195 191 151 137 130 121 131 170 165 254 10 54 3 35 46 72 186 192 242 280 322 295 289 264 199 196 263 246 276 283 281 285 281 269 267 275 280
132 151 162 176 204 183 149 174 176 164 188 131 119 102 135 174 28 120 68 17 24 24 35 54 215 228 260 277 296 302 291 293 281 259 257 282 279 280 299 344 292 285 334 16 356
139 132 128 150 156 145 150 165 120 134 137 141 115 113 88 99 115 70 53 78 214 357 83 323 254 33 274 277 274 283 279 286 282 279 266 268 294 13 321 315 326 318 308 69 23
213 80 116 143 128 110 182 151 187 133 34 107 136 109 109 147 117 124 174 242 234 241 191 200 183 197 258 252 276 277 250 254 253 246 270 294 217 290 337 340 317 309 354 6 330